Погода в Максимовке

Россия / Тамбовская область     52°58′23″N   42°10′29″E
темп.,
°C
ветер,
м/с
пор.,
м/с
влажн.,
%
обл.,
%
осадки,
мм/ч
давл.,
гПа
погр.,
м
2 июля, сб
сб200:00+11с8176669 0.4 1016758
03:00+9с816770 0.4 1016508
06:00+11с715864 0.0 1016535
09:00+17ссв912675 0.0 1016972
12:00+20ссв10135434 0.0 10151963
15:00+21ссв9115431 0.1 10152073
18:00+20ссв6105916 0.0 10151367
21:00+14с35740 0.0 101663
3 июля, вс
вс300:00+13с34735 0.0 101552
03:00+12ссз36795 0.0 101594
06:00+15сз3875100 0.0 1014228
09:00+16ссз36767 0.0 1014287
12:00+23сз445310 0.0 10131511
15:00+22всв226399 0.4 1012110
18:00+22ссв466699 0.0 1012548
21:00+16с35895 0.1 101483
4 июля, пн
пн400:00+15ссв37945 0.0 1014140
03:00+14ссв36960 0.0 1014118
06:00+15ссв489063 0.0 1015254
09:00+20ссв6862100 0.0 10161000
12:00+22св5648100 0.0 10161605
15:00+23св464513 0.0 10161941
18:00+22всв0156100 0.0 1015307
21:00+19зюз335899 0.0 101649
5 июля, вт
вт500:00+16зсз337547 0.0 101634
03:00+15с33825 0.0 101729
06:00+17сз23765 0.0 101783
09:00+23ссв235838 0.0 1017582
12:00+25св34495 0.0 10171150
15:00+26всв34445 0.0 10161849
18:00+25ююв2256100 0.0 1016209
21:00+20ю336780 0.0 101734
6 июля, ср
ср600:00+18ю337248 0.0 101750
03:00+17юз347738 0.0 101759
06:00+19ююз237444 0.0 101871
09:00+25юз4559100 0.0 1017537
12:00+27ююз4448100 0.0 10171444
15:00+28ю4452100 0.0 10171412
18:00+20ююз6889100 4.9 1017211
21:00+19ююз47878 8.6 1017111